Theta_e
351 353 354 356 354 352 347 345 345 343 342 340 338 338 340 344 351 355 359 358 357 355 350 346 343 342 343 341 340 340 340 338 338 335 332 332 331 330 330 330 330 329
352 354 358 357 356 360 356 348 345 345 343 342 341 340 341 350 355 358 356 353 351 347 344 343 343 343 342 340 339 337 336 335 334 336 331 331 330 330 329 330 329 329
353 353 355 354 352 351 351 353 352 348 345 343 342 344 347 355 355 355 352 348 344 343 342 342 342 342 342 340 337 335 334 333 331 331 333 330 330 329 330 329 329 330
352 352 353 353 352 350 351 350 348 348 348 346 343 343 356 357 355 353 349 348 342 342 342 342 341 341 340 339 336 334 333 333 332 331 329 330 332 331 330 331 332 329
353 352 352 352 352 352 351 348 347 344 345 342 346 353 357 353 352 348 344 342 342 341 341 340 340 340 340 337 335 333 334 332 331 331 329 328 329 332 332 331 329 328
352 352 352 351 351 350 349 347 346 346 342 352 353 354 352 351 348 345 343 342 342 341 341 340 339 339 337 335 333 331 331 330 330 330 330 329 328 329 331 330 328 328
351 350 350 351 350 349 347 347 345 350 352 355 353 351 349 345 343 343 343 343 342 342 339 338 338 336 335 332 332 330 330 329 328 328 327 328 329 328 329 329 329 328
350 348 348 347 348 348 347 346 342 351 355 353 352 350 346 343 342 343 343 342 341 340 339 338 336 334 332 331 330 329 329 332 329 327 326 325 326 325 327 329 328 328
349 348 347 345 346 346 347 345 351 355 355 352 350 346 345 343 343 343 342 341 339 338 338 338 335 333 331 330 329 328 327 328 330 327 327 327 327 326 326 326 327 328
347 348 346 346 347 345 345 347 355 354 354 351 348 346 344 344 344 342 341 341 340 339 338 335 333 332 331 330 329 328 327 327 327 328 328 327 327 327 326 326 325 326
344 345 344 345 346 344 349 354 353 353 353 349 347 345 344 343 343 343 341 341 341 340 337 334 332 331 330 329 330 328 328 329 328 327 327 327 327 328 333 326 327 325
344 343 342 344 348 355 354 353 352 352 350 349 346 344 343 342 342 342 342 340 339 339 337 334 332 330 329 329 329 330 330 330 330 329 328 326 325 326 326 328 327 326
347 344 343 348 357 355 354 353 351 350 349 347 345 343 341 340 340 339 339 337 337 336 336 335 333 331 329 328 328 328 328 329 328 327 327 327 326 326 327 326 326 327
351 347 344 355 356 354 353 352 350 347 345 344 343 340 339 338 337 336 336 335 334 334 334 335 333 332 331 330 330 329 330 328 329 328 327 326 326 326 327 327 328 328
354 357 358 358 356 353 351 349 346 344 343 342 341 340 340 337 336 334 333 332 332 332 332 334 334 334 334 331 329 330 329 328 328 327 326 326 325 326 327 328 328 332
361 361 358 356 354 351 349 346 344 343 342 341 340 339 338 336 334 333 331 330 330 330 331 333 334 335 343 343 344 333 329 330 329 327 326 325 325 325 326 327 327 327
362 359 357 354 353 350 347 345 344 343 342 340 339 337 336 336 333 331 330 329 329 329 330 331 332 335 338 337 339 343 334 329 327 326 325 324 323 322 322 325 326 326
362 359 356 354 352 349 347 345 343 341 340 339 338 336 336 334 331 329 329 329 329 328 328 330 330 335 332 336 340 341 339 330 325 322 322 320 319 320 321 322 323 324
362 358 355 353 351 349 346 343 341 340 339 338 337 337 334 331 329 328 328 328 327 327 327 329 327 333 333 336 338 338 335 328 321 320 320 318 318 319 320 321 322 326
361 358 355 353 351 348 344 342 341 340 339 339 338 336 331 329 328 328 327 327 327 327 327 327 327 334 333 335 336 334 331 328 320 320 319 319 319 320 321 321 322 323
361 358 355 352 350 346 343 342 341 339 339 339 337 333 329 327 327 326 327 329 327 325 325 326 329 334 332 334 334 331 332 330 322 323 321 319 320 321 321 321 321 324
360 357 354 351 348 345 343 341 340 340 339 339 336 332 330 329 328 328 328 326 325 324 323 321 325 330 331 332 331 330 332 326 322 321 321 320 321 321 322 322 322 321
360 357 354 351 348 345 343 341 340 340 339 339 334 332 330 328 328 328 327 325 325 322 321 321 324 326 325 328 328 328 330 322 323 323 321 320 319 321 321 322 324 322
360 357 353 351 348 345 344 342 341 341 340 339 334 331 329 328 327 326 325 326 325 322 322 321 322 328 324 324 326 329 330 323 323 323 321 321 320 320 321 320 326 334
360 357 354 351 349 347 345 342 341 340 340 338 334 332 330 329 329 325 325 326 325 323 334 324 322 327 321 322 323 327 333 327 327 324 322 319 320 320 319 320 319 330
360 357 355 352 350 347 345 343 342 340 338 335 333 332 330 328 327 326 325 325 327 329 330 323 323 323 325 319 322 325 332 329 324 320 319 318 318 319 319 317 319 319
Wind_Speed
5 4 4 3 5 5 5 5 5 4 4 5 5 5 4 1 3 5 5 6 7 7 6 5 4 5 6 6 6 6 7 7 7 6 7 7 6 6 6 6 6 5
6 5 4 4 5 3 4 4 3 2 3 4 5 3 2 3 4 7 7 8 8 7 6 6 6 6 7 7 6 7 8 7 7 5 6 6 5 6 6 6 5 5
6 5 5 5 5 4 5 3 3 3 4 5 5 2 4 5 6 5 7 8 8 7 6 5 6 7 8 7 7 8 7 7 6 5 5 5 5 6 5 4 5 4
7 6 6 5 4 5 5 3 3 3 3 5 5 1 6 7 7 8 7 8 7 7 6 6 8 7 7 7 8 7 7 6 4 4 5 5 5 5 5 4 4 5
7 7 6 5 5 5 5 4 4 5 2 2 0 4 7 7 8 8 7 7 7 7 7 7 7 7 7 8 7 7 6 6 4 4 4 5 5 4 4 4 5 5
6 6 6 6 6 6 6 6 5 3 3 4 3 4 7 7 7 7 7 7 7 7 7 7 7 8 8 8 7 6 6 5 3 3 4 4 4 4 4 4 4 5
8 7 8 7 6 6 7 7 6 0 5 6 5 5 6 8 8 7 7 7 8 7 7 7 7 8 6 6 6 6 5 3 3 3 4 3 3 4 4 3 4 4
8 6 7 6 7 8 7 8 2 3 7 7 8 5 7 8 8 7 7 8 8 8 7 7 8 7 6 6 6 6 4 2 3 3 3 3 3 3 4 3 3 5
8 7 6 6 7 7 9 4 3 7 6 8 8 7 6 7 8 8 8 8 8 7 7 7 7 6 5 5 5 4 3 1 2 2 3 2 3 3 3 3 4 4
7 8 7 6 6 7 6 3 6 7 7 8 7 7 8 6 7 8 8 8 8 7 7 7 7 6 5 4 5 4 2 1 1 2 2 3 2 1 1 3 3 4
7 6 6 6 7 4 5 8 8 8 8 9 8 8 7 7 6 6 8 7 8 8 8 7 6 6 5 4 3 2 1 0 1 2 2 2 2 0 0 0 2 3
6 6 6 5 3 6 9 9 9 9 9 7 9 9 7 6 7 6 6 7 7 8 7 7 5 5 4 4 3 1 0 0 0 1 2 3 2 0 1 1 0 2
7 7 7 4 5 7 8 8 8 8 9 9 7 9 8 8 6 7 5 7 7 7 7 6 5 4 3 2 2 1 1 1 2 2 3 2 2 1 2 2 2 2
8 8 7 8 7 7 9 9 9 8 8 8 8 8 8 8 8 8 6 6 7 7 6 6 5 4 3 3 3 2 2 2 2 2 3 3 3 3 3 3 3 3
5 5 7 8 9 9 9 9 9 9 8 8 7 7 7 7 7 8 8 8 7 7 6 5 5 4 3 3 3 3 2 3 2 2 3 3 3 4 5 5 4 4
7 8 9 9 10 10 10 9 9 9 9 8 7 7 7 7 7 7 7 8 8 6 5 5 4 2 5 7 5 2 2 2 2 2 3 3 3 4 5 4 4 3
8 9 9 9 9 9 9 10 9 8 8 8 8 8 8 7 8 8 7 6 7 7 6 5 3 3 7 4 4 5 4 3 3 3 3 3 3 3 3 3 4 3
9 9 10 10 9 10 9 8 9 9 9 8 9 8 7 7 8 8 7 7 6 6 6 5 3 6 5 4 4 8 7 4 3 3 3 3 3 3 3 3 2 3
11 11 10 10 10 10 9 9 9 9 9 9 9 8 8 8 8 8 8 7 7 7 6 4 3 5 5 5 8 10 11 8 4 3 4 3 3 3 3 3 2 3
11 12 11 11 10 10 10 10 10 10 8 7 8 7 8 8 8 8 8 7 6 6 6 4 4 6 5 7 11 12 11 8 4 4 3 3 3 3 3 3 3 3
11 11 11 10 10 10 10 10 9 9 9 8 8 9 9 9 9 9 7 7 6 5 5 4 3 5 6 9 12 12 11 7 4 3 3 3 3 3 2 2 3 3
11 11 11 11 11 10 10 10 9 11 10 8 8 7 6 7 6 7 8 7 6 5 5 4 3 4 7 9 12 12 11 5 4 4 4 3 3 2 2 2 2 3
12 12 12 12 12 12 11 11 11 10 9 8 9 8 9 8 8 7 7 8 7 6 6 5 3 4 7 9 11 12 8 5 4 4 4 4 2 2 2 2 2 3
12 12 13 12 12 13 12 10 9 8 9 9 11 10 9 8 7 8 7 7 7 7 6 6 4 4 7 8 10 10 8 6 5 5 3 3 2 2 3 3 3 8
12 12 12 13 13 12 11 12 11 10 8 8 8 8 8 8 7 8 7 6 6 6 9 7 4 4 6 7 9 10 7 6 6 5 4 3 2 2 2 2 3 4
11 12 12 12 12 10 9 9 8 9 9 9 8 7 8 8 8 8 8 7 6 5 5 6 5 4 4 8 9 10 11 8 6 6 5 4 3 3 3 2 2 2
Wind_Direction
198 197 204 216 227 208 226 215 214 225 232 229 225 235 221 245 67 88 91 91 84 87 86 82 75 76 75 70 67 67 57 56 57 50 53 51 46 44 42 31 30 23
200 199 202 207 232 240 233 231 256 239 263 278 266 272 66 101 111 108 109 96 90 87 84 80 76 76 74 69 61 63 58 56 56 48 54 50 40 40 35 26 21 10
197 201 201 206 223 235 248 232 225 241 239 256 267 243 106 122 119 97 96 100 98 96 90 90 82 75 75 72 67 65 67 63 60 49 54 43 36 35 24 16 12 9
204 200 203 209 214 233 253 247 242 254 264 277 272 234 137 129 119 111 104 108 108 100 94 83 78 75 76 74 72 72 71 69 63 56 49 34 27 27 16 7 9 8
199 202 205 215 222 233 247 253 255 254 292 338 300 123 122 122 118 111 108 102 99 98 92 84 81 77 73 71 74 77 69 65 46 47 48 39 19 20 11 18 11 12
198 197 205 212 221 224 239 246 246 260 78 98 74 107 107 108 105 104 102 101 98 95 91 87 82 75 76 78 77 73 72 67 42 45 45 37 21 12 19 19 17 14
199 194 203 212 216 222 230 240 248 107 126 119 106 85 102 100 102 104 103 101 100 97 93 90 81 80 80 82 79 78 70 67 47 48 48 28 29 18 13 15 13 12
206 195 202 203 211 222 225 234 209 130 134 125 114 108 107 109 107 105 102 104 101 95 93 86 86 87 86 84 87 86 73 52 52 41 39 29 29 27 9 4 8 17
202 205 202 197 205 220 232 216 119 121 127 119 115 114 104 106 110 107 105 103 98 98 96 92 92 93 90 95 96 95 91 47 28 51 54 41 40 29 9 357 21 15
210 208 206 194 199 209 219 141 124 118 116 113 112 108 107 100 106 112 110 104 104 98 93 100 98 97 99 103 110 109 113 96 30 48 50 59 79 67 9 15 20 18
215 216 208 203 204 181 137 129 121 119 119 120 117 110 110 115 111 108 106 108 107 106 106 105 111 112 113 109 106 122 135 131 59 34 48 69 81 65 145 53 15 9
206 206 212 207 140 125 136 130 128 125 122 115 121 121 119 117 113 105 113 108 107 105 108 113 116 120 121 131 135 112 75 36 13 54 71 72 61 354 252 261 325 342
197 201 192 151 133 132 128 125 123 124 122 123 124 125 124 117 110 111 108 111 106 102 103 111 115 112 109 95 87 85 104 79 71 63 43 45 34 2 346 325 319 325
195 197 171 144 138 133 125 124 122 119 119 118 121 120 121 123 125 121 114 106 104 98 97 98 96 89 82 76 66 49 41 69 78 79 64 42 26 24 19 5 354 9
143 137 135 138 136 130 126 126 125 124 123 123 123 122 122 124 124 121 116 106 96 96 96 95 96 98 103 97 81 54 54 90 87 85 77 59 33 23 24 28 22 28
133 133 132 134 132 131 131 129 129 131 129 128 127 127 125 125 118 112 111 115 112 104 98 96 92 90 100 96 95 109 85 93 81 60 52 49 48 35 28 33 34 30
135 137 134 134 133 128 130 132 133 133 131 129 131 132 131 128 120 117 114 114 116 119 114 103 101 105 91 62 59 113 113 92 80 65 56 54 50 48 39 31 25 19
140 140 136 136 135 135 137 136 133 134 136 138 138 137 132 124 120 121 121 121 118 117 116 119 117 105 91 86 88 113 108 97 84 79 64 55 47 51 43 46 28 12
144 141 140 142 145 142 140 141 141 140 142 145 146 141 130 127 130 127 128 128 129 130 128 127 119 119 115 107 110 109 109 101 92 83 78 65 56 59 57 48 30 18
148 145 147 149 148 147 148 148 151 153 150 144 137 134 133 132 132 131 132 135 140 136 129 126 122 121 117 119 120 118 116 109 106 97 90 80 72 64 57 47 29 18
153 150 149 151 152 152 153 154 153 149 149 149 145 145 146 147 146 141 140 139 137 133 128 124 131 124 114 123 129 130 125 117 107 92 88 77 67 62 56 51 30 19
157 155 154 155 155 156 156 157 160 159 154 149 139 138 140 137 134 134 138 139 139 135 128 131 133 117 121 131 139 140 132 117 115 105 100 89 66 48 45 40 51 41
161 158 159 160 160 160 163 163 161 159 153 149 144 150 150 151 148 142 140 141 144 147 142 145 145 132 131 143 154 152 132 128 123 112 99 90 69 42 21 12 54 64
164 162 163 163 165 169 170 169 160 150 154 157 154 153 152 150 142 136 142 148 151 154 153 145 152 141 139 155 170 170 149 143 141 127 113 100 81 34 28 11 41 75
166 168 167 168 172 174 168 164 164 160 153 148 147 143 142 143 143 141 144 145 149 151 154 142 154 153 159 170 172 177 155 135 141 135 119 121 112 73 16 27 9 34
169 171 172 172 174 167 163 154 144 146 154 149 144 140 142 147 147 148 146 150 154 155 147 150 156 178 175 181 177 179 147 140 140 134 136 155 148 126 84 33 36 21